DW3201 Weather Reports


time (UTC)temp
C
wind
direction
speed
KPH
gust
KPH
rain 1hr
cm
rain 24hr
cm
rain mn
cm
humidity
%
barometer
mb
20260508211600 19 271 4.8 11.3 0.00 0.00 0.00 24 1004.9
20260508210057 18 249 9.7 20.9 0.00 0.00 0.00 23 1005.1
20260508204603 19 262 14.5 29.0 0.00 0.00 0.00 22 1005.4
20260508203101 19 245 8.0 14.5 0.00 0.00 0.00 24 1005.6
20260508201613 19 225 12.9 19.3 0.00 0.00 0.00 21 1005.7
20260508200109 19 271 3.2 19.3 0.00 0.00 0.00 20 1005.9
20260508194600 19 16 4.8 9.7 0.00 0.00 0.00 23 1006.1
20260508193106 18 221 3.2 20.9 0.00 0.00 0.00 22 1006.4
20260508191555 19 214 3.2 12.9 0.00 0.00 0.00 23 1006.5
20260508190057 18 233 4.8 11.3 0.00 0.00 0.00 24 1006.8
20260508184604 19 219 1.6 8.0 0.00 0.00 0.00 26 1006.9
20260508183105 18 72 4.8 16.1 0.00 0.00 0.00 21 1007.1
20260508181554 19 233 0.0 9.7 0.00 0.00 0.00 25 1007.3
20260508180059 18 89 0.0 6.4 0.00 0.00 0.00 23 1007.4
20260508174605 18 271 1.6 12.9 0.00 0.00 0.00 28 1007.6
20260508173054 17 63 4.8 11.3 0.00 0.00 0.00 23 1007.9
20260508171558 17 235 6.4 12.9 0.00 0.00 0.00 22 1008.2
20260508170056 17 228 4.8 9.7 0.00 0.00 0.00 24 1008.5
20260508164558 17 263 0.0 4.8 0.00 0.00 0.00 26 1008.7
20260508163114 16 251 4.8 11.3 0.00 0.00 0.00 26 1008.9
20260508161556 16 231 3.2 9.7 0.00 0.00 0.00 25 1009.1
20260508160052 16 242 3.2 6.4 0.00 0.00 0.00 25 1009.1
20260508154558 16 248 1.6 11.3 0.00 0.00 0.00 27 1009.5
20260508153057 16 162 1.6 9.7 0.00 0.00 0.00 28 1009.4
20260508151554 16 167 0.0 4.8 0.00 0.00 0.00 29 1009.4
20260508150052 15 118 3.2 8.0 0.00 0.00 0.00 32 1009.5
20260508144551 15 249 0.0 4.8 0.00 0.00 0.00 33 1009.6
20260508143054 14 266 1.6 6.4 0.00 0.00 0.00 41 1009.4
20260508141555 13 99 1.6 9.7 0.00 0.00 0.00 51 1009.6
20260508140054 12 88 0.0 4.8 0.00 0.00 0.00 58 1009.7
20260508134551 11 69 1.6 3.2 0.00 0.00 0.00 65 1009.7
20260508133059 10 96 0.0 3.2 0.00 0.00 0.00 74 1010.1
20260508131556 8 243 0.0 3.2 0.00 0.00 0.00 79 1010.1
20260508130107 6 0 0.0 3.2 0.00 0.00 0.00 94 1010.2
20260508124554 5 0 0.0 1.6 0.00 0.00 0.00 95 1010.2
20260508123056 3 0 0.0 0.0 0.00 0.00 0.00 95 1010.2
20260508121551 2 0 0.0 0.0 0.00 0.00 0.00 94 1010.2
20260508120056 1 0 0.0 0.0 0.00 0.00 0.00 94 1010.1
20260508114551 0 0 0.0 0.0 0.00 0.00 0.00 94 1010.0
20260508113107 0 0 0.0 0.0 0.00 0.00 0.00 94 1010.1
20260508111553 0 0 0.0 0.0 0.00 0.00 0.00 94 1010.0
20260508110118 0 0 0.0 0.0 0.00 0.00 0.00 94 1010.0
20260508104557 0 0 0.0 0.0 0.00 0.00 0.00 93 1010.0
20260508103057 0 0 0.0 0.0 0.00 0.00 0.00 94 1010.0
20260508101556 0 0 0.0 0.0 0.00 0.00 0.00 93 1010.0
20260508100055 0 0 0.0 0.0 0.00 0.00 0.00 93 1010.0
20260508094600 0 0 0.0 0.0 0.00 0.00 0.00 93 1010.2
20260508093102 0 0 0.0 0.0 0.00 0.00 0.00 93 1010.2
20260508091557 0 0 0.0 0.0 0.00 0.00 0.00 92 1010.3
20260508090108 0 0 0.0 0.0 0.00 0.00 0.00 93 1010.4
20260508084552 0 0 0.0 1.6 0.00 0.00 0.00 93 1010.5
20260508083055 0 277 0.0 0.0 0.00 0.00 0.00 92 1010.5
20260508081559 0 0 0.0 0.0 0.00 0.00 0.00 92 1010.4
20260508080054 0 0 0.0 0.0 0.00 0.00 0.00 91 1010.5
20260508074555 0 277 1.6 1.6 0.00 0.00 0.00 90 1010.6
20260508073058 1 271 0.0 1.6 0.00 0.00 0.00 92 1010.7
20260508071554 1 277 0.0 1.6 0.00 0.00 0.00 90 1010.8
20260508070054 1 0 0.0 1.6 0.00 0.00 0.00 89 1010.8
20260508064556 1 264 0.0 1.6 0.00 0.00 0.00 87 1011.0
20260508063055 1 0 0.0 1.6 0.00 0.00 0.00 87 1011.1
20260508061606 1 0 0.0 1.6 0.00 0.00 0.00 86 1011.3
20260508060057 2 263 0.0 1.6 0.00 0.00 0.00 86 1011.5
20260508054635 2 0 0.0 1.6 0.00 0.00 0.00 84 1011.3
20260508053052 2 0 0.0 1.6 0.00 0.00 0.00 83 1011.4
20260508051552 2 0 0.0 1.6 0.00 0.00 0.00 83 1011.4
20260508050057 2 0 0.0 1.6 0.00 0.00 0.00 83 1011.3
20260508044559 3 0 0.0 1.6 0.00 0.00 0.00 81 1011.2
20260508043052 3 0 0.0 0.0 0.00 0.00 0.00 80 1011.0
20260508041559 3 0 0.0 0.0 0.00 0.00 0.00 80 1010.9
20260508040058 4 0 0.0 0.0 0.00 0.00 0.00 77 1010.8
20260508034600 5 0 0.0 1.6 0.00 0.00 0.00 75 1010.6
20260508033052 5 45 3.2 4.8 0.00 0.00 0.00 76 1010.7
20260508031600 5 112 1.6 6.4 0.00 0.00 0.00 75 1010.4
20260508030112 5 75 1.6 8.0 0.00 0.00 0.00 73 1010.3
20260508024605 6 97 4.8 9.7 0.00 0.00 0.00 71 1010.3
20260508023055 6 94 6.4 11.3 0.00 0.00 0.00 71 1010.3
20260508021614 7 83 4.8 12.9 0.00 0.00 0.00 71 1010.1
20260508020054 7 103 6.4 14.5 0.00 0.00 0.00 71 1009.9
20260508014602 8 72 6.4 11.3 0.00 0.00 0.00 68 1009.7
20260508013106 8 49 3.2 8.0 0.00 0.00 0.00 67 1009.4
20260508011601 8 75 8.0 14.5 0.00 0.00 0.00 65 1009.3
20260508010057 9 68 6.4 9.7 0.00 0.00 0.00 66 1009.2
20260508004558 10 69 4.8 11.3 0.00 0.00 0.00 64 1008.9
20260508003103 10 63 11.3 17.7 0.00 0.00 0.00 64 1008.6
20260508001554 10 88 12.9 17.7 0.00 0.00 0.00 64 1008.6
20260508000053 10 87 14.5 25.7 0.00 0.00 0.00 64 1008.6
20260507234553 11 103 11.3 16.1 0.00 0.00 0.00 60 1008.4
20260507233056 11 68 11.3 14.5 0.00 0.00 0.00 60 1008.4
20260507231557 11 43 8.0 17.7 0.00 0.00 0.00 57 1008.5
20260507230049 11 71 6.4 9.7 0.00 0.00 0.00 56 1008.3
20260507224601 10 86 9.7 17.7 0.00 0.00 0.00 57 1008.4
20260507223052 10 86 8.0 17.7 0.00 0.00 0.00 55 1008.4
20260507221556 10 75 6.4 16.1 0.00 0.00 0.00 56 1008.7
20260507220057 10 88 8.0 14.5 0.00 0.00 0.00 54 1008.7
20260507214558 10 70 11.3 16.1 0.00 0.00 0.00 55 1008.7
20260507213056 10 94 11.3 20.9 0.00 0.00 0.00 56 1008.7